Tracking 20232 objects as of 22-Jan-2020
HD Live streaming from Space Station
objects crossing your sky now

SL-8 DEB

Track SL-8 DEB now!
10-day predictions


NORAD ID: 25027
Int'l Code: 1992-053D
Perigee: 769.6 km
Apogee: 772.7 km
Inclination: 74.0 °
Period: 100.1 minutes
Semi major axis: 7142 km
RCS: 0.0055 m2 (small)
Launch date: August 12, 1992
Source: Commonwealth of Independent States (former USSR) (CIS)
Launch site: PLESETSK MISSILE AND SPACE COMPLEX (PKMTR)

Note: This is SATELLITE DEBRIS
aabbcc
Your satellite tracking list
Your tracking list is empty




NASA's NSSDC Master Catalog

Two Line Element Set (TLE):
1 25027U 92053D   20022.35686178  .00000105  00000-0  43117-4 0  9991
2 25027  74.0324 113.7569 0002128  76.7328 348.9746 14.38328957192593
Source of the keplerian elements: AFSPC